EA3ANS-1 Weather Reports


Display with metric or nautical units.
time (UTC)temp
F
wind
direction
speed
MPH
gust
MPH
rain 1hr
in
rain 24hr
in
rain mn
in
humidity
%
barometer
mb
20260509055739 58 329 5.0 6.0 0.00 0.00 0.00 1013.6
20260509054739 57 269 6.0 8.0 0.00 0.00 0.00 1013.3
20260509053742 57 326 4.0 6.0 0.00 0.00 0.00 1013.2
20260509052745 57 335 4.0 6.0 0.00 0.00 0.00 1013.3
20260509051747 58 329 1.0 4.0 0.00 0.00 0.00 1013.4
20260509050750 57 7 3.0 2.0 0.00 0.00 0.00 1013.7
20260509045753 57 305 5.0 5.0 0.00 0.00 0.00 1013.6
20260509044744 57 340 5.0 8.0 0.00 0.00 0.00 1013.6
20260509043746 57 11 4.0 3.0 0.00 0.00 0.00 1013.4
20260509042749 57 336 4.0 4.0 0.00 0.00 0.00 1013.6
20260509041745 58 335 3.0 3.0 0.00 0.00 0.00 1013.7
20260509040744 58 314 5.0 8.0 0.00 0.00 0.00 1013.7
20260509035746 58 347 7.0 6.0 0.00 0.00 0.00 1013.7
20260509034749 59 323 5.0 5.0 0.00 0.00 0.00 1013.8
20260509033746 59 325 0.0 0.0 0.00 0.00 0.00 1013.8
20260509032748 59 359 7.0 6.0 0.00 0.00 0.00 1013.7
20260509031751 58 352 6.0 4.0 0.00 0.00 0.00 1014.0
20260509030753 58 352 6.0 6.0 0.00 0.00 0.00 1013.9
20260509025750 58 11 6.0 4.0 0.00 0.00 0.00 1013.9
20260509024753 57 10 4.0 7.0 0.00 0.00 0.00 1013.9
20260509023755 57 321 4.0 6.0 0.00 0.00 0.00 1013.9
20260509022752 58 314 7.0 8.0 0.00 0.00 0.00 1014.0
20260509021754 57 301 5.0 3.0 0.00 0.00 0.00 1014.0
20260509020752 58 332 6.0 7.0 0.00 0.00 0.00 1014.0
20260509015755 58 342 7.0 6.0 0.00 0.00 0.00 1014.3
20260509014749 58 311 4.0 6.0 0.00 0.00 0.00 1014.3
20260509013752 58 323 3.0 4.0 0.00 0.00 0.00 1014.5
20260509012755 58 343 5.0 6.0 0.00 0.00 0.00 1014.5
20260509011747 57 321 6.0 5.0 0.00 0.00 0.00 1014.6
20260509010750 58 326 5.0 4.0 0.00 0.00 0.00 1014.5
20260509005752 58 338 5.0 4.0 0.00 0.00 0.00 1014.7
20260509004750 59 30 0.0 0.0 0.00 0.00 0.00 1014.8
20260509003752 59 120 2.0 2.0 0.00 0.00 0.00 1014.8
20260509002755 59 149 1.0 2.0 0.00 0.00 0.00 1014.9
20260509001748 59 319 2.0 3.0 0.00 0.00 0.00 1014.9
20260509000743 59 304 1.0 0.0 0.00 0.00 0.00 1014.9
20260508235746 60 255 0.0 2.0 0.00 0.00 0.00 1014.9
20260508234747 60 214 0.0 0.0 0.00 0.00 0.00 1014.9
20260508233731 59 170 0.0 0.0 0.00 0.00 0.00 1014.9
20260508232723 60 221 0.0 0.0 0.00 0.00 0.00 1014.9
20260508231718 60 271 1.0 2.0 0.00 0.00 0.00 1015.0
20260508230721 60 339 0.0 0.0 0.00 0.00 0.00 1014.9
20260508225718 59 328 0.0 1.0 0.00 0.00 0.00 1015.0
20260508224717 60 259 2.0 2.0 0.00 0.00 0.00 1015.0
20260508223708 59 129 0.0 0.0 0.00 0.00 0.00 1015.0
20260508222707 60 129 0.0 0.0 0.00 0.00 0.00 1015.1
20260508221700 60 129 0.0 0.0 0.00 0.00 0.00 1015.2
20260508220659 59 129 0.0 0.0 0.00 0.00 0.00 1015.2
20260508215702 59 129 0.0 0.0 0.00 0.00 0.00 1015.1
20260508214655 60 129 0.0 0.0 0.00 0.00 0.00 1015.1
20260508212659 60 75 1.0 1.0 0.00 0.00 0.00 1015.1
20260508211641 60 24 1.0 0.0 0.00 0.00 0.00 1015.1
20260508210635 60 41 1.0 1.0 0.00 0.00 0.00 1015.1
20260508205633 60 45 1.0 1.0 0.00 0.00 0.00 1015.0
20260508204632 60 14 2.0 1.0 0.00 0.00 0.00 1015.0
20260508203622 61 34 1.0 1.0 0.00 0.00 0.00 1015.0
20260508202625 61 87 0.0 0.0 0.00 0.00 0.00 1014.8
20260508201627 62 143 2.0 2.0 0.00 0.00 0.00 1014.7
20260508200626 62 98 1.0 1.0 0.00 0.00 0.00 1014.5
20260508195628 62 141 3.0 2.0 0.00 0.00 0.00 1014.4
20260508194626 62 131 2.0 2.0 0.00 0.00 0.00 1014.2
20260508193624 63 98 2.0 2.0 0.00 0.00 0.00 1014.2
20260508192620 63 118 3.0 3.0 0.00 0.00 0.00 1014.0
20260508191623 63 142 5.0 4.0 0.00 0.00 0.00 1013.9
20260508190622 63 145 4.0 4.0 0.00 0.00 0.00 1013.7
20260508185620 63 141 5.0 4.0 0.00 0.00 0.00 1013.7
20260508184623 64 122 4.0 3.0 0.00 0.00 0.00 1013.7
20260508183620 63 145 4.0 3.0 0.00 0.00 0.00 1013.6
20260508182623 63 91 4.0 6.0 0.00 0.00 0.00 1013.5
20260508181554 64 117 6.0 5.0 0.00 0.00 0.00 1013.4
20260508180548 64 145 5.0 6.0 0.00 0.00 0.00 1013.4
20260508175550 64 156 5.0 9.0 0.00 0.00 0.00 1013.3
20260508174553 65 167 6.0 8.0 0.00 0.00 0.00 1013.3
20260508173551 65 118 5.0 6.0 0.00 0.00 0.00 1013.3
20260508172550 66 158 8.0 11.0 0.00 0.00 0.00 1013.0
20260508171528 66 174 5.0 5.0 0.00 0.00 0.00 1012.9
20260508170526 66 155 7.0 10.0 0.00 0.00 0.00 1012.7
20260508165525 67 115 7.0 7.0 0.00 0.00 0.00 1012.9
20260508164523 66 129 8.0 6.0 0.00 0.00 0.00 1012.7
20260508163517 67 207 8.0 6.0 0.00 0.00 0.00 1012.7
20260508162518 67 142 6.0 8.0 0.00 0.00 0.00 1012.7
20260508161520 67 165 7.0 4.0 0.00 0.00 0.00 1012.5
20260508160509 67 172 7.0 5.0 0.00 0.00 0.00 1012.4
20260508155504 67 163 8.0 10.0 0.00 0.00 0.00 1012.7
20260508154507 67 83 6.0 3.0 0.00 0.00 0.00 1012.7
20260508153507 67 153 7.0 7.0 0.00 0.00 0.00 1012.9
20260508152507 68 139 8.0 7.0 0.00 0.00 0.00 1012.9
20260508151502 68 155 11.0 12.0 0.00 0.00 0.00 1012.9
20260508150500 68 101 8.0 7.0 0.00 0.00 0.00 1012.9
20260508145502 68 121 10.0 9.0 0.00 0.00 0.00 1012.8
20260508144444 70 121 4.0 5.0 0.00 0.00 0.00 1012.8
20260508143441 71 121 5.0 3.0 0.00 0.00 0.00 1012.9
20260508142435 69 141 5.0 4.0 0.00 0.00 0.00 1012.8
20260508141430 69 113 4.0 2.0 0.00 0.00 0.00 1013.0
20260508140428 70 190 4.0 6.0 0.00 0.00 0.00 1013.1
20260508135426 71 191 3.0 9.0 0.00 0.00 0.00 1013.2
20260508134424 70 193 5.0 8.0 0.00 0.00 0.00 1013.5
20260508133419 69 87 6.0 5.0 0.00 0.00 0.00 1013.5
20260508132420 70 117 9.0 6.0 0.00 0.00 0.00 1013.6
20260508131420 70 77 3.0 2.0 0.00 0.00 0.00 1013.8
20260508130406 69 152 7.0 7.0 0.00 0.00 0.00 1013.8
20260508125355 69 155 9.0 7.0 0.00 0.00 0.00 1013.7
20260508124358 69 177 9.0 6.0 0.00 0.00 0.00 1013.7
20260508123354 69 117 9.0 7.0 0.00 0.00 0.00 1013.8
20260508122344 68 146 9.0 11.0 0.00 0.00 0.00 1013.8
20260508121339 67 156 4.0 6.0 0.00 0.00 0.00 1013.8
20260508120342 68 121 7.0 6.0 0.00 0.00 0.00 1013.8
20260508115344 68 139 5.0 6.0 0.00 0.00 0.00 1013.8
20260508114347 68 132 4.0 6.0 0.00 0.00 0.00 1013.8
20260508113349 68 143 7.0 7.0 0.00 0.00 0.00 1013.7
20260508112347 69 120 6.0 7.0 0.00 0.00 0.00 1013.7
20260508111339 69 207 4.0 4.0 0.00 0.00 0.00 1013.8
20260508110340 67 149 7.0 3.0 0.00 0.00 0.00 1013.8
20260508105321 67 162 5.0 9.0 0.00 0.00 0.00 1013.8
20260508104320 68 134 4.0 5.0 0.00 0.00 0.00 1013.8
20260508103323 67 125 5.0 2.0 0.00 0.00 0.00 1014.0
20260508102318 68 155 6.0 13.0 0.00 0.00 0.00 1014.1
20260508101321 69 52 2.0 4.0 0.00 0.00 0.00 1014.2
20260508100306 68 100 7.0 7.0 0.00 0.00 0.00 1014.4
20260508095308 67 94 5.0 2.0 0.00 0.00 0.00 1014.3
20260508094311 67 210 1.0 4.0 0.00 0.00 0.00 1014.3
20260508093314 66 125 5.0 2.0 0.00 0.00 0.00 1014.4
20260508092316 65 129 4.0 6.0 0.00 0.00 0.00 1014.4
20260508091313 65 187 3.0 3.0 0.00 0.00 0.00 1014.3
20260508090315 64 89 5.0 4.0 0.00 0.00 0.00 1014.2
20260508085309 64 131 3.0 1.0 0.00 0.00 0.00 1014.1
20260508084310 64 122 1.0 2.0 0.00 0.00 0.00 1014.1
20260508083305 63 181 2.0 2.0 0.00 0.00 0.00 1014.1
20260508082308 62 252 5.0 1.0 0.00 0.00 0.00 1013.8
20260508081306 61 340 3.0 5.0 0.00 0.00 0.00 1013.7
20260508080303 60 323 4.0 5.0 0.00 0.00 0.00 1013.7
20260508075308 59 294 4.0 7.0 0.00 0.00 0.00 1013.6
20260508074302 59 359 6.0 4.0 0.00 0.00 0.00 1013.5
20260508073301 58 329 6.0 6.0 0.00 0.00 0.00 1013.6
20260508072307 58 249 4.0 2.0 0.00 0.00 0.00 1013.4
20260508071301 58 41 5.0 5.0 0.00 0.00 0.00 1013.3
20260508070301 58 93 0.0 0.0 0.00 0.00 0.00 1013.4
20260508065306 56 359 4.0 2.0 0.00 0.00 0.00 1013.5
20260508064306 55 357 4.0 5.0 0.00 0.00 0.00 1013.3
20260508063303 54 328 7.0 9.0 0.00 0.00 0.00 1013.3
20260508062300 53 23 8.0 5.0 0.00 0.00 0.00 1013.4
20260508061301 53 340 7.0 7.0 0.00 0.00 0.00 1013.3